Ohio State University, OH

2:20 AM EDT on August 22, 2017 (GMT -0400)
Ohio State University

Weather History for KOSU - May, 2013

Change the Weather History Date:

Wednesday, May 22, 2013

  Actual Average Record
Temperature  
Mean Temperature 73 °F -  
Max Temperature 82 °F 70 °F 84 °F (2004)
Min Temperature 64 °F 49 °F 33 °F (2002)
Cooling Degree Days 8    
Growing Degree Days 23 (Base 50)    
Moisture  
Dew Point 61 °F    
Average Humidity 68    
Maximum Humidity 90    
Minimum Humidity 47    
Precipitation  
Precipitation 0.03 in - - ()
Sea Level Pressure  
Sea Level Pressure 29.79 in    
Wind  
Wind Speed 10 mph (SSW)    
Max Wind Speed 20 mph    
Max Gust Speed 29 mph    
Visibility 10 miles    
Events Rain    
Averages and records for this station are not official NWS values.
T = Trace of Precipitation, MM = Missing Value Source: NWS Daily Summary

Daily Weather History Graph

Daily Weather History Graph

Search for Another Location

Airport or City:

Trip Planner

Search our weather history database for the weather conditions in past years. The results will help you decide how hot, cold, wet, or windy it might be!

Date:

Astronomy

May. 22, 2013 Rise Set
Actual Time 6:10 AM EDT 8:47 PM EDT
Civil Twilight 5:39 AM EDT 9:19 PM EDT
Nautical Twilight 5:00 AM EDT 9:58 PM EDT
Astronomical Twilight 4:16 AM EDT 10:42 PM EDT
Moon 6:08 PM EDT 4:14 AM EDT
Length of Visible Light 15h 39m
Length of Day
14h 36m
Waxing Gibbous, 91% of the Moon is Illuminated
May 22
Waxing Gibbous
May 25
Full
May 31
Last Quarter
Jun 8
New
Jun 16
First Quarter

Hourly Weather History & Observations

Time (EDT) Temp. Heat Index Dew Point Humidity Pressure Visibility Wind Dir Wind Speed Gust Speed Precip Events Conditions
12:53 AM 71.1 °F - 60.1 °F 68% 29.83 in 10.0 mi South 11.5 mph - N/A   Clear
1:53 AM 69.1 °F - 61.0 °F 75% 29.83 in 10.0 mi South 6.9 mph 17.3 mph N/A   Partly Cloudy
2:53 AM 68.0 °F - 61.0 °F 78% 29.82 in 10.0 mi SSW 8.1 mph - N/A   Mostly Cloudy
3:53 AM 66.9 °F - 61.0 °F 81% 29.81 in 10.0 mi South 6.9 mph - 0.00 in   Clear
4:53 AM 66.0 °F - 61.0 °F 84% 29.81 in 10.0 mi South 6.9 mph - N/A   Clear
5:53 AM 64.9 °F - 60.1 °F 84% 29.80 in 10.0 mi South 4.6 mph - N/A   Clear
6:53 AM 64.9 °F - 61.0 °F 87% 29.83 in 10.0 mi South 8.1 mph - N/A   Clear
7:53 AM 66.9 °F - 61.0 °F 81% 29.84 in 10.0 mi SSW 5.8 mph - N/A   Partly Cloudy
8:53 AM 71.1 °F - 62.1 °F 73% 29.83 in 10.0 mi South 8.1 mph - N/A   Clear
9:53 AM 73.9 °F - 62.1 °F 66% 29.81 in 10.0 mi South 8.1 mph - N/A   Clear
10:53 AM 75.9 °F - 62.1 °F 62% 29.81 in 10.0 mi South 13.8 mph - N/A   Scattered Clouds
11:53 AM 79.0 °F - 62.1 °F 56% 29.81 in 10.0 mi SW 15.0 mph 21.9 mph N/A   Partly Cloudy
12:53 PM 79.0 °F - 61.0 °F 54% 29.80 in 10.0 mi South 19.6 mph 25.3 mph N/A   Mostly Cloudy
1:53 PM 78.1 °F - 60.1 °F 54% 29.78 in 10.0 mi SSW 12.7 mph 23.0 mph N/A   Partly Cloudy
2:53 PM 82.0 °F 82.7 °F 61.0 °F 49% 29.76 in 10.0 mi South 16.1 mph 23.0 mph N/A   Clear
3:53 PM 80.1 °F 80.7 °F 59.0 °F 48% 29.76 in 10.0 mi SSW 16.1 mph 27.6 mph N/A   Mostly Cloudy
4:53 PM 81.0 °F 81.3 °F 59.0 °F 47% 29.73 in 10.0 mi SSW 19.6 mph 28.8 mph N/A   Partly Cloudy
5:53 PM 80.1 °F 80.9 °F 60.1 °F 50% 29.72 in 10.0 mi SSW 17.3 mph 25.3 mph N/A   Clear
6:53 PM 78.1 °F - 59.0 °F 52% 29.73 in 10.0 mi SSW 11.5 mph 20.7 mph N/A   Clear
7:53 PM 75.9 °F - 60.1 °F 58% 29.75 in 10.0 mi SSW 17.3 mph 24.2 mph N/A   Scattered Clouds
8:53 PM 72.0 °F - 62.1 °F 71% 29.77 in 10.0 mi WSW 10.4 mph - 0.00 in   Mostly Cloudy
9:53 PM 69.1 °F - 64.9 °F 87% 29.79 in 8.0 mi SW 13.8 mph - 0.02 in Rain Rain
10:53 PM 64.9 °F - 61.0 °F 87% 29.77 in 10.0 mi SSW 5.8 mph - 0.01 in   Overcast
11:53 PM 64.9 °F - 62.1 °F 90% 29.77 in 10.0 mi SSW 5.8 mph - N/A   Clear